ASA1322 KSTS-KSEA

Flight info

Callsign ASA1322
Flight time N/A
Altitude 34000
Route CHRRO1 RBL LMT HAWKZ8
Aircraft B738/M-SDE2E3FGHIRWXY/LB1

Departure

Time 2026-04-29 18:36
Airport Charles M. Schulz Sonoma County Airport (KSTS)

Arrival

Time N/A
Airport Seattle–Tacoma International Airport (KSEA)
Time Latitude Longitude Altitude Speed Heading
2026-04-29 18:16 38.51040 -122.80710 124 ft 0 kts 64°
2026-04-29 18:29 38.51023 -122.80739 124 ft 4 kts 27°
2026-04-29 18:29 38.51000 -122.80743 121 ft 4 kts 341°
2026-04-29 18:30 38.50991 -122.80739 124 ft 0 kts 338°
2026-04-29 18:32 38.51001 -122.80744 124 ft 5 kts 338°
2026-04-29 18:32 38.51059 -122.80775 121 ft 11 kts 337°
2026-04-29 18:33 38.51094 -122.80833 124 ft 8 kts 276°
2026-04-29 18:33 38.51123 -122.80892 119 ft 9 kts 332°
2026-04-29 18:33 38.51199 -122.80931 123 ft 14 kts 338°
2026-04-29 18:33 38.51302 -122.80986 120 ft 18 kts 337°
2026-04-29 18:34 38.51429 -122.81053 122 ft 21 kts 337°
2026-04-29 18:34 38.51476 -122.81078 121 ft 22 kts 337°
2026-04-29 18:34 38.51704 -122.81200 117 ft 16 kts 338°
2026-04-29 18:34 38.51764 -122.81236 119 ft 11 kts 326°
2026-04-29 18:35 38.51763 -122.81318 119 ft 11 kts 234°
2026-04-29 18:35 38.51705 -122.81361 118 ft 9 kts 159°
2026-04-29 18:35 38.51683 -122.81346 121 ft 0 kts 156°
2026-04-29 18:35 38.51554 -122.81275 119 ft 58 kts 156°
2026-04-29 18:36 38.50930 -122.80943 122 ft 133 kts 157°
2026-04-29 18:36 38.49940 -122.80418 514 ft 161 kts 157°
2026-04-29 18:36 38.48878 -122.79817 1301 ft 173 kts 153°
2026-04-29 18:36 38.47787 -122.79061 2076 ft 185 kts 152°
2026-04-29 18:37 38.46558 -122.78210 2523 ft 218 kts 153°
2026-04-29 18:37 38.45129 -122.77257 2932 ft 241 kts 153°
2026-04-29 18:37 38.43606 -122.76267 3745 ft 248 kts 153°
2026-04-29 18:37 38.42067 -122.75265 4821 ft 247 kts 148°
2026-04-29 18:38 38.40862 -122.73762 5717 ft 250 kts 118°
2026-04-29 18:38 38.40390 -122.71605 6398 ft 264 kts 87°
2026-04-29 18:38 38.40847 -122.69299 7107 ft 275 kts 68°
2026-04-29 18:38 38.41554 -122.67007 8009 ft 280 kts 68°
2026-04-29 18:39 38.42329 -122.64718 8936 ft 284 kts 58°
2026-04-29 18:39 38.43695 -122.62894 9824 ft 288 kts 32°
2026-04-29 18:39 38.45578 -122.61996 10591 ft 298 kts
2026-04-29 18:39 38.47739 -122.62037 10857 ft 325 kts 355°
2026-04-29 18:40 38.50086 -122.62338 11124 ft 349 kts 354°
2026-04-29 18:40 38.52544 -122.62654 11769 ft 358 kts 354°
2026-04-29 18:40 38.55021 -122.62949 12693 ft 357 kts 355°
2026-04-29 18:40 38.57504 -122.63229 13552 ft 360 kts 355°
2026-04-29 18:41 38.64863 -122.62337 16288 ft 357 kts 11°
2026-04-29 18:41 38.67311 -122.61679 16975 ft 362 kts 11°
2026-04-29 18:42 38.69784 -122.61008 17688 ft 365 kts 11°
2026-04-29 18:42 38.72270 -122.60336 18426 ft 366 kts 11°
2026-04-29 18:42 38.74773 -122.59665 19116 ft 369 kts 10°
2026-04-29 18:42 38.77297 -122.58996 19733 ft 373 kts 10°
2026-04-29 18:43 38.79851 -122.58323 20365 ft 376 kts 10°
2026-04-29 18:43 38.82430 -122.57644 20991 ft 378 kts 10°
2026-04-29 18:43 38.85019 -122.56963 21572 ft 381 kts
2026-04-29 18:43 38.87625 -122.56279 22140 ft 384 kts
2026-04-29 18:44 38.90260 -122.55587 22671 ft 387 kts
2026-04-29 18:44 38.92907 -122.54892 23210 ft 389 kts
2026-04-29 18:44 38.95572 -122.54191 23738 ft 392 kts
2026-04-29 18:44 38.98250 -122.53485 24253 ft 394 kts
2026-04-29 18:45 39.00942 -122.52776 24719 ft 397 kts
2026-04-29 18:45 39.03625 -122.52069 25165 ft 400 kts
2026-04-29 18:45 39.06355 -122.51349 25610 ft 402 kts
2026-04-29 18:45 39.09115 -122.50621 26047 ft 405 kts
2026-04-29 18:46 39.11883 -122.49890 26485 ft 407 kts
2026-04-29 18:46 39.14661 -122.49155 26898 ft 409 kts
2026-04-29 18:46 39.17463 -122.48414 27292 ft 411 kts
2026-04-29 18:46 39.20273 -122.47670 27696 ft 413 kts
2026-04-29 18:47 39.23098 -122.46921 28046 ft 416 kts
2026-04-29 18:47 39.25942 -122.46166 28445 ft 417 kts
2026-04-29 18:47 39.28755 -122.45419 28804 ft 419 kts
2026-04-29 18:47 39.31616 -122.44659 29143 ft 421 kts
2026-04-29 18:48 39.34494 -122.43893 29442 ft 423 kts
2026-04-29 18:48 39.37387 -122.43123 29780 ft 425 kts
2026-04-29 18:48 39.40277 -122.42352 30245 ft 422 kts
2026-04-29 18:48 39.43148 -122.41587 30717 ft 420 kts
2026-04-29 18:49 39.46008 -122.40822 31176 ft 418 kts
2026-04-29 18:49 39.48853 -122.40060 31598 ft 417 kts
2026-04-29 18:49 39.51701 -122.39300 31974 ft 416 kts
2026-04-29 18:49 39.54499 -122.38552 32336 ft 415 kts
2026-04-29 18:50 39.57362 -122.37787 32743 ft 414 kts
2026-04-29 18:50 39.60149 -122.37039 33156 ft 412 kts
2026-04-29 18:50 39.62952 -122.36287 33494 ft 412 kts
2026-04-29 18:50 39.65762 -122.35532 33807 ft 412 kts
2026-04-29 18:51 39.68569 -122.34779 34116 ft 412 kts
2026-04-29 18:51 39.71389 -122.34021 34120 ft 417 kts
2026-04-29 18:51 39.77073 -122.32491 34131 ft 415 kts
2026-04-29 18:52 39.82672 -122.30978 34133 ft 409 kts
2026-04-29 18:52 39.88205 -122.29484 34140 ft 408 kts
2026-04-29 18:53 39.93779 -122.27977 34130 ft 409 kts
2026-04-29 18:53 39.99347 -122.26468 34129 ft 409 kts
2026-04-29 18:54 40.04935 -122.24950 34132 ft 410 kts
2026-04-29 18:54 40.10510 -122.23439 34130 ft 409 kts
2026-04-29 18:55 40.16116 -122.22061 34131 ft 409 kts
2026-04-29 18:55 40.21722 -122.20740 34129 ft 410 kts
2026-04-29 18:56 40.27310 -122.19412 34132 ft 410 kts
2026-04-29 18:56 40.32930 -122.18063 34132 ft 410 kts
2026-04-29 18:57 40.38542 -122.16708 34126 ft 410 kts
2026-04-29 18:57 40.44159 -122.15351 34127 ft 411 kts
2026-04-29 18:58 40.49777 -122.13990 34116 ft 410 kts
2026-04-29 18:58 40.55386 -122.12628 34122 ft 410 kts
2026-04-29 18:59 40.61010 -122.11261 34117 ft 410 kts
2026-04-29 18:59 40.66579 -122.09905 34124 ft 410 kts
2026-04-29 19:00 40.72179 -122.08539 34123 ft 409 kts
2026-04-29 19:00 40.77781 -122.07169 34120 ft 409 kts
2026-04-29 19:01 40.83361 -122.05805 34128 ft 408 kts
2026-04-29 19:01 40.88950 -122.04433 34136 ft 407 kts
2026-04-29 19:02 40.93590 -122.03293 34140 ft 408 kts
2026-04-29 19:02 41.00108 -122.01690 34141 ft 408 kts
2026-04-29 19:03 41.05687 -122.00314 34144 ft 408 kts
2026-04-29 19:03 41.11232 -121.98945 34157 ft 406 kts
2026-04-29 19:04 41.16780 -121.97572 34157 ft 406 kts
2026-04-29 19:04 41.22323 -121.96198 34154 ft 405 kts
2026-04-29 19:05 41.27860 -121.94824 34159 ft 404 kts
2026-04-29 19:05 41.33377 -121.93452 34163 ft 403 kts
2026-04-29 19:06 41.38874 -121.92084 34168 ft 401 kts
2026-04-29 19:07 41.47114 -121.90027 34164 ft 401 kts
2026-04-29 19:07 41.52604 -121.88654 34177 ft 401 kts
2026-04-29 19:08 41.58093 -121.87280 34178 ft 402 kts
2026-04-29 19:08 41.63599 -121.85898 34171 ft 402 kts
2026-04-29 19:09 41.69068 -121.84522 34181 ft 402 kts
2026-04-29 19:09 41.74574 -121.83135 34181 ft 402 kts
2026-04-29 19:10 41.80078 -121.81747 34187 ft 402 kts
2026-04-29 19:10 41.85584 -121.80355 34188 ft 403 kts
2026-04-29 19:11 41.91093 -121.78960 34198 ft 403 kts
2026-04-29 19:11 41.96610 -121.77559 34196 ft 403 kts
2026-04-29 19:12 42.02124 -121.76159 34215 ft 403 kts
2026-04-29 19:12 42.07643 -121.74754 34191 ft 404 kts
2026-04-29 19:13 42.13138 -121.73354 34196 ft 404 kts
2026-04-29 19:13 42.15915 -121.72975 34189 ft 399 kts 355°
2026-04-29 19:13 42.18652 -121.73387 34218 ft 396 kts 349°
2026-04-29 19:14 42.24086 -121.74659 34197 ft 396 kts 348°
2026-04-29 19:14 42.29511 -121.75969 34209 ft 396 kts 348°
2026-04-29 19:15 42.34952 -121.77239 34195 ft 397 kts 348°
2026-04-29 19:15 42.40398 -121.78487 34189 ft 397 kts 348°
2026-04-29 19:16 42.45848 -121.79730 34199 ft 396 kts 348°
2026-04-29 19:16 42.51289 -121.80969 34188 ft 397 kts 348°
2026-04-29 19:17 42.56731 -121.82213 34191 ft 396 kts 348°
2026-04-29 19:17 42.61951 -121.83409 34201 ft 395 kts 348°